Weather Roundup
Issued by NWS

Home | Current Version | Previous Version | Graphics & Text | Print | Product List | Glossary Off
Versions: 1 2 3 4 5 6 7 8 9 10 11 12 13 14 15 16 17 18 19 20 21 22 23 24 25 26 27 28 29 30 31 32 33 34 35 36 37 38 39 40 41 42 43 44 45 46 47 48 49 50

000
NZUS93 KARX 190159
HRRWXR

CURRENT HOURLY OBSERVATIONS ACROSS
MUCH OF THE UPPER MISSISSIPPI VALLEY
NATIONAL WEATHER SERVICE LA CROSSE WI
900 PM CDT FRI APR 18 2014


...SOUTHEAST MINNESOTA...


CITY           SKY/WX    TMP DP  RH WIND       PRES   REMARKS
ROCHESTER      CLEAR     45  29  53 E13       30.21F
ROCHESTER/MAYO FAIR      48  27  43 E10       30.22F
WINONA         CLEAR     43  32  65 SE5       30.27S
AUSTIN         CLEAR     46  36  66 SE10      30.20S
ALBERT LEA     CLEAR     48  36  61 SE9       30.19R
DODGE CENTER   CLEAR     48  32  53 SE12      30.20F
PRESTON        CLEAR     48  29  48 SE8       30.24F
OWATONNA       CLEAR     48  34  57 SE12      30.20R
FARIBAULT      CLEAR     50  28  43 E9        30.20R
$$

...ELSEWHERE IN MINNESOTA...


CITY           SKY/WX    TMP DP  RH WIND       PRES   REMARKS
MINNEAPOLIS    MOCLDY    48  28  46 E13       30.20F
INTNL FALLS    MOCLDY    40  14  34 SE10      30.22S WCI  33
DULUTH         MOCLDY    34  22  61 E15       30.29S WCI  24
RED WING       CLEAR     46  28  49 E5        30.23F
REDWOOD FALLS  MOCLDY    50  36  58 SE18G26   30.06F
MANKATO        PTCLDY    48  34  57 SE14      30.16S
WORTHINGTON    CLOUDY    54  28  37 SE16      30.06S
FAIRMONT       MOCLDY    50  32  50 SE17      30.13F
$$

...SOUTHWEST WISCONSIN...


CITY           SKY/WX    TMP DP  RH WIND       PRES   REMARKS
LA CROSSE      CLEAR     51  26  37 E3        30.27S
PRAIRIE DU CHI CLEAR     51  27  39 CALM      30.27R
BOSCOBEL       CLEAR     48  27  44 E3        30.29R
LONE ROCK      NOT AVBL
PLATTEVILLE    CLEAR     49  32  52 E10       30.29R
FORT MC COY    CLEAR     46  26  46 E6        30.30R
VIROQUA        FAIR      44  29  56 E8        30.28R
WIS DELLS      CLEAR     45  26  47 E6        30.30F
$$

...ELSEWHERE IN WISCONSIN...


CITY           SKY/WX    TMP DP  RH WIND       PRES   REMARKS
MILWAUKEE      PTCLDY    34  28  79 NE7       30.39S WCI  28
MADISON        PTCLDY    47  30  51 E10       30.33R
GREEN BAY      CLEAR     37  29  72 E7        30.40R WCI  32
EAU CLAIRE     PTCLDY    46  25  43 E12       30.28R
BLACK RVR FLS  FAIR      44  24  45 E5        30.29S
MEDFORD        CLEAR     40  21  45 E6        30.31S
WAUSAU         CLEAR     38  21  50 E7        30.32R WCI  33
WIS RAPIDS     CLEAR     43  23  45 E6        30.33S
MARSHFIELD     CLEAR     41  24  51 E7        30.31R
RICE LAKE      CLOUDY    43  23  44 E6        30.30R
$$

...NORTHEAST IOWA...


CITY           SKY/WX    TMP DP  RH WIND       PRES   REMARKS
WATERLOO       CLEAR     47  30  51 E9        30.21F
DUBUQUE        CLEAR     48  31  51 E7        30.28R
DECORAH        MOCLDY    48  28  46 SE7       30.25R
MASON CITY     CLEAR     48  32  53 SE12      30.20R
CHARLES CITY   CLEAR     50  32  50 SE12      30.22S
OELWEIN        CLEAR    N/A N/A N/A E8        30.24S
$$

...ELSEWHERE IN IOWA...


CITY           SKY/WX    TMP DP  RH WIND       PRES   REMARKS
DES MOINES     PTCLDY    59  34  39 SE10      30.18R
IOWA CITY      CLEAR     51  30  44 CALM      30.25S
FORT DODGE     MOCLDY    54  30  40 SE10      30.15S
MARSHALLTOWN   CLEAR     49  30  48 E8        30.19S
CEDAR RAPIDS   CLEAR     49  28  44 E9        30.23R
$$

...NORTHERN ILLINOIS...


CITY           SKY/WX    TMP DP  RH WIND       PRES   REMARKS
CHICAGO-OHARE  CLEAR     38  26  62 NE10      30.37R WCI  31
DUPAGE         CLEAR     38  29  70 NE12      30.35R WCI  30
CHICAGO-MIDWAY CLEAR     40  30  67 NE13      30.36R WCI  32
MOLINE         CLEAR     51  31  46 E5        30.26R
ROCKFORD       CLEAR     45  33  63 E13       30.34R
STERLING       CLEAR     48  36  61 NE7       30.28R
PEORIA         CLEAR     58  27  30 NE5       30.27R
$$

NOTE: "FAIR" INDICATES FEW OR NO CLOUDS BELOW 12,000 FEET WITH NO
SIGNIFICANT WEATHER AND/OR OBSTRUCTIONS TO VISIBILITY. WIND
SPEEDS ARE IN MILES-PER-HOUR.



USA.gov is the U.S. government's official web portal to all federal, state and local government web resources and services.